Regional Weather Roundup
Issued by NWS

Home | Current Version | Previous Version | Graphics & Text | Print | Product List | Glossary On
Versions: 1 2 3 4 5 6 7 8 9 10 11 12 13 14 15 16 17 18 19 20 21 22 23 24 25 26 27
000
ASUS45 KBOU 180106
RWRCO

WEATHER ROUNDUP FOR COLORADO
NATIONAL WEATHER SERVICE DENVER/BOULDER CO
700 PM MDT THU APR 17 2014

NOTE: "FAIR" INDICATES FEW OR NO CLOUDS BELOW 12000 FEET WITH NO
SIGNIFICANT WEATHER AND/OR OBSTRUCTIONS TO VISIBILITY.

COZ001>005-013-030-031-180200-
...NORTHWEST COLORADO...

CITY           SKY/WX    TMP DP  RH WIND       PRES   REMARKS
CRAIG          PTCLDY    58  23  26 W14       30.01S
HAYDEN         PTCLDY    57  25  28 W14       30.04F
MEEKER         PTCLDY    60  20  21 S15       30.02S
MOUNT WERNER   MOCLDY    41  12  30 SW14      30.19F
STEAMBOAT SPGS PTCLDY    57  15  18 SW7       30.03F
WALDEN         CLEAR     46  19  34 S6        30.08F
$$

COZ006>008-011-180200-
...WEST CENTRAL VALLEYS...

CITY           SKY/WX    TMP DP  RH WIND       PRES   REMARKS
GRAND JUNCTION CLEAR     64  19  17 NW3       29.98F
MONTROSE       CLEAR     66  20  17 N5        30.03F
EAGLE          PTCLDY    59  19  21 W14G20    30.06R
RIFLE          CLEAR     63  21  20 W15       30.00F
DELTA          CLEAR     68  21  16 CALM      30.00F
NUCLA            N/A     64  19  17 W14G20    30.07S
$$

COZ017>023-064>068-180200-
...SOUTHWEST COLORADO...

CITY           SKY/WX    TMP DP  RH WIND       PRES   REMARKS
DURANGO        CLEAR     61  14  16 SW15      30.09S
CORTEZ         CLEAR     64  20  18 W6        30.07S
PAGOSA SPRINGS CLEAR     59  14  16 SW13      30.14R
TELLURIDE      CLEAR     52  19  28 W9        30.18S
WOLF CREEK PAS CLEAR     32  18  55 SW16G32   30.29S WCI  21
$$

COZ009-010-012-014-032>034-037-058>063-180200-
...CENTRAL COLORADO...

CITY           SKY/WX    TMP DP  RH WIND       PRES   REMARKS
ASPEN          PTCLDY    53  17  24 W7        30.10S
BUENA VISTA    CLEAR     55  14  19 SW14      30.09S
COPPER MTN     MOCLDY    37  18  44 SW13G22   30.24S
BERTHOUD PASS  FAIR      28  19  69 W15G23    30.25S WCI  17
COTTONWOOD PAS CLEAR     50   9  18 W17G24    30.17F
GUNNISON       CLEAR     55  18  22 W13       30.14S
KREMMLING      MOCLDY    55  14  19 W10G16    30.07S
LEADVILLE      PTCLDY    42  16  34 W8        30.16S
SALIDA         CLEAR     60  14  17 W10       30.15S
SUNLIGHT       CLEAR     41  25  52 CALM      30.23F
WILKERSON PASS CLEAR     36  19  51 SW8       30.23F
$$

COZ069>075-180200-
...SAN LUIS VALLEY/SANGRE DE CRISTO MOUNTAINS...

CITY           SKY/WX    TMP DP  RH WIND       PRES   REMARKS
ALAMOSA        CLEAR     56  31  38 SE13      30.08F
LA VETA PASS   NOT AVBL
SAGUACHE       NOT AVBL
$$

COZ035-036-038>040-180200-
...NORTHERN COLORADO FRONT RANGE...

CITY           SKY/WX    TMP DP  RH WIND       PRES   REMARKS
DENVER INTL AP PTCLDY    58  33  39 S15       29.98S
DMNS CITY PARK   N/A     59  32  35 SE9G17    29.97S
AURORA         MOCLDY    57  34  41 S21       29.99F
FRONT RANGE AP NOT AVBL
ERIE MUNI ARPT CLEAR     62  26  26 E8        29.96S
BOULDER MUN AP CLEAR     61  28  29 E5        29.96S
CENTENNIAL     PTCLDY    54  34  46 S18       29.99F
BROOMFIELD     PTCLDY    61  28  29 SE6       29.99S
FORT COLLINS   CLEAR     61  28  29 E6        29.98S
LONGMONT       CLEAR     64  25  22 SE6       29.98S
$$

COZ041-046-047-076>085-087-088-180200-
...PIKES PEAK/PALMER DIVIDE AND SOUTHERN FOOTHILLS...

CITY           SKY/WX    TMP DP  RH WIND       PRES   REMARKS
COLO. SPRINGS  MOCLDY    53  31  42 S15       30.08S
A. F. ACADEMY  CLEAR     51  31  47 S16G25    30.07S
ELLICOTT       NOT AVBL
FALCON         CLEAR     49  30  47 S15       30.10S
FORT CARSON    CLEAR     55  32  41 S10       30.06S
LIMON          CLEAR     50  32  50 S21G30    30.07S
MONUMENT HILL  CLEAR     46  32  57 S22G32    30.04F
TRINIDAD       CLEAR     52  36  54 SW18      30.10S
$$

COZ042>045-048>051-090-091-180200-
...NORTHEAST COLORADO...

CITY           SKY/WX    TMP DP  RH WIND       PRES   REMARKS
GREELEY ARPT   CLEAR     61  25  25 E10       29.97S
AKRON          CLEAR     56  30  37 S16       30.01F
BURLINGTON     CLEAR     50  37  61 S23       30.10F
WRAY           CLEAR     56  38  52 S16       30.05F
STERLING       CLEAR     63  34  34 S13G21    29.97S
HOLYOKE        CLEAR     59  39  47 S23       30.03F
FORT MORGAN    CLEAR     61  28  29 S18G26    29.98S
$$

COZ086-089-092>099-180200-
...SOUTHEAST COLORADO...

CITY           SKY/WX    TMP DP  RH WIND       PRES   REMARKS
PUEBLO         CLEAR     60  31  33 SE14      30.03S
LA JUNTA       CLEAR     58  36  43 SE20      30.05F
LAMAR          CLEAR     52  37  56 S18       30.10F
SPRINGFIELD      N/A     47  36  65 S16       30.16F
$$



USA.gov is the U.S. government's official web portal to all federal, state and local government web resources and services.